Location: *
(49.4547°N, 7.9131°E)
Time: 13:20:27
(UTC+00:00)

Resurs 1-3 - Pass Details

Date: 22 September 2019
Orbit: 630 x 632 km, 98.0° (Epoch: 15 October)

Event Time Altitude Azimuth Distance (km) Brightness Sun altitude
Exits shadow 18:47:34 21° 114° (ESE) 1,410 4.8 -13.7°
Maximum altitude 18:49:42 34° 66° (ENE) 1,058 4.4 -14.0°
Drops below altitude 10° 18:53:40 10° 3° (N) 2,026 6.4 -14.6°
Sets 18:56:01 0° 354° (N) 2,939 7.4 -15.0°
